Αρχική σελίδα
METAR-TAF:

METAR-TAF

Αεροδρόμια :

Elkhart-Morton County Airport

Elkhart, Κάνσας, Ηνωμένες Πολιτείες Αμερικής

γεωγραφικό πλάτος: 37-00N, γεωγραφικό μήκος: 101-54W, υψόμετρο: 1099 μ

Παρών καιρός

Η αναφορά έγινε 31 λεπτά πριν, στις 18:35 UTC
Άνεμος 3 kt από Ν/NA
Θερμοκρασία 1°C
Υγρασία 86%
Πίεση 1024 hPa
Ορατότητα: 16.1 χλμ
Διάσπαρτα νέφη σε ύψος 1200 πόδια
Νεφοσκεπής σε ύψος 2400 πόδια

METAR: KEHA 181835Z AUTO 16003KT 10SM SCT012 OVC024 01/M01 A3025 RMK AO2 T00081007

Χρόνος: 13:06 (19:06 UTC)


TAF: λείπει

Μετεωρολογικές αναφορές και προγνώσεις για περισσότερα από 4000 αεροδρόμια (δελτία METAR και TAF).

Οι διαθέσιμοι σταθμοί απεικονίζονται στο χάρτη με κίτρινες και κόκκινες κουκκίδες.

Μετακινήστε το ποντίκι πάνω από τις κουκκίδες για να δείτε το όνομα του σταθμού.

Στη συνέχεια, κάντε κλικ για να δείτε τις μετεωρολογικές αναφορές και τις προγνώσεις καιρού.

Για να αλλάξετε το χάρτη: κάντε κλικ στα πράσινα κουμπιά με τον μαύρο σταυρό για να ζουμάρετε, στο πράσινο κουμπί με την παύλα για να αφαιρέσετε το ζουμ ή στα πράσινα βέλη για να αντιπαραβάλλετε χάρτες.


METAR-TAF: